Вернуться в каталог

STARLINK-3370

АктивенСвязьVLEO
NORAD 51127·PAYLOAD·🇺🇸 United States

Запущен Jan 19, 2022 с Cape Canaveral Space Force Station

Loading…

Ближайшие Пролёты (ближайшие 24 часа)

TLE

СвежийSource: CelesTrak SupGP

Эпоха: Sep 14, 2026, 21:17 UTC

1 51127C 22005Z   26257.88729167 -.00045087  00000+0 -14497-2 0  2574
2 51127  53.1565 155.9200 0001285  93.7456 324.9174 15.31728004    17

Отслеживайте STARLINK-3370 в реальном времени с AllMySat

Download on the App Store